Airfield :
LOGIN :

Register | Disclaimer

   EN    FR    IT 

 










Legend :    VFR   Marginal VFR   IFR   Intensive IFR   Very Intensive IFR
Visi :
Ceiling :
>= 8 km
>= 3000ft
5 to 8 km
1000 to 3000 ft
1500m to 5 km
500 to 1000 ft
800 to 1500m
200 to 500 ft
< 800m
< 200 ft
Symbols :   Thunderstorms  Fog  Heavy snow  Heavy precipitations  Wind > 20 kt
SIGMETs :     Misc.  Thunderstorms  Icing  Turbulence  Mountain Waves  Volcanic Ashes







- Airport Elevation : 19 ft
- IATA code : LCY
- Download approach charts


EGLC - London City

CURRENT METAR :
  • 151220Z AUTO 24011KT 9999 OVC031 23/15 Q1018

EXPIRED METARs :
  • 151150Z AUTO 25013KT 9999 OVC030 22/15 Q1018
  • 151120Z AUTO 24010KT 210V270 9999 OVC029 22/15 Q1018
  • 151050Z AUTO 24011KT 210V280 9999 OVC028 22/15 Q1018
  • 151020Z AUTO 24011KT 200V280 9999 OVC026 22/14 Q1018
  • 150950Z AUTO 24010KT 220V290 9999 OVC025 21/14 Q1018

TAF TAF EGLC
Valid from the 15 at 12:00 until the 15 at 21:00 UTC


151100Z 1512/1521 24011KT 9999 SCT032
ATIS : +44 20 7646 0224
No reported NOTAMs for that airfield.



MET'MAP, your aeronautical weather chart ! - Copyright ORBIFLY December 2007 - Disclaimer

ORBIFLY MET'MAP TEAM :

Programming & Development : Alexandra Zaïnal
Concept & Development : Baudouin d'Aumeries
Co-Development & Prog : Marc-Olivier Méhu
Technical & hardware support : Manuel Goepfert

Contact : metmap@orbifly.com




SOURCES & CREDITS :

   NOAA